Regional Weather Roundup
Issued by NWS

Home | Current Version | Previous Version | Graphics & Text | Print | Product List | Glossary On
Versions: 1 2 3 4 5 6 7 8 9 10 11 12 13 14 15 16 17 18 19 20 21 22 23 24 25 26 27 28 29 30 31 32 33 34 35 36 37 38 39 40 41 42 43 44 45 46 47 48 49 50
276
ASUS43 KMPX 240801
RWRMN
WEATHER ROUNDUP FOR MINNESOTA
NATIONAL WEATHER SERVICE TWIN CITIES/CHANHASSEN MN
300 AM CDT TUE MAY 24 2016


NOTE: "FAIR" INDICATES FEW OR NO CLOUDS BELOW 12,000 FEET WITH NO
SIGNIFICANT WEATHER AND/OR OBSTRUCTIONS TO VISIBILITY. N/A MEANS
CURRENT SKY AND/OR WEATHER CONDITIONS ARE NOT AVAILABLE.

MNZ060>063-068>070-240900-
   Twin Cities Metro

CITY           SKY/WX    TMP DP  RH WIND       PRES   REMARKS
TWIN CITIES    CLOUDY    68  60  75 SW7       29.80S
ST PAUL        CLOUDY    67  61  81 S7        29.80F
CRYSTAL        CLOUDY    65  61  87 S7        29.78S
BLAINE         CLOUDY    66  64  94 S7        29.79S
EDEN PRAIRIE   CLOUDY    68  61  78 S7        29.78S
SOUTH ST PAUL  CLOUDY    67  61  79 SW5       29.80R
LAKE ELMO      FAIR      63  61  94 CALM      29.82R
$$
MNZ001>005-007-008-013>017-022>024-027-028-240900-
   Northwest Minnesota

CITY           SKY/WX    TMP DP  RH WIND       PRES   REMARKS
BEMIDJI        LGT RAIN  63  51  65 SW12G20   29.76S
HALLOCK        CLEAR     57  50  77 NE3       29.72R
ROSEAU         CLOUDY    61  48  63 CALM      29.74S
WARROAD        CLOUDY    61  48  63 W6        29.74S
THIEF RVR FALL CLOUDY    61  46  59 CALM      29.76R
CROOKSTON      CLOUDY    63  48  59 E8        29.73S
FOSSTON          N/A     57  50  77 CALM      29.76S
DETROIT LAKES  CLOUDY    61  54  77 CALM      29.76S
MOORHEAD       PTCLDY    59  50  72 E6        29.74S
PARK RAPIDS    CLOUDY    63  54  72 NE7       29.76S
MAHNOMEN       PTSUNNY   58  53  85 E3        29.73F
$$
MNZ006-009>011-018-025>026-240900-
   North Central Minnesota

CITY           SKY/WX    TMP DP  RH WIND       PRES   REMARKS
BAUDETTE       CLOUDY    54  51  90 E5        29.74S
FLAG ISLAND    CLOUDY    63  50  63 CALM      29.72S
INTL FALLS     FOG       50  50 100 CALM      29.76R VSB 1
WASKISH        CLOUDY    55  54  94 CALM      29.75S
BIG FORK       MOCLDY    55  54  94 CALM      29.78R
LONGVILLE      CLOUDY    63  55  77 N3        29.79R
GRAND RAPIDS     N/A    N/A N/A N/A MISG        N/A  THUNDER
CRANE LAKE     CLOUDY    55  55 100 CALM      29.79R
ORR            CLOUDY    57  55  94 CALM      29.76R
COOK           CLOUDY    57  57 100 CALM      29.79R
WALKER         CLOUDY    60  57  91 SW9       29.81R
$$
MNZ012-019>021-037-240900-
   Northeast Minnesota

CITY           SKY/WX    TMP DP  RH WIND       PRES   REMARKS
DULUTH         MOCLDY    59  58  96 NE5       29.81R
ELY            CLOUDY    57  55  94 S3        29.80S
HIBBING        MOCLDY    56  56 100 CALM      29.79R
EVELETH        CLOUDY    57  55  94 CALM      29.80F
DULUTH HARBOR  FOG       55  54  94 NE9       29.81R THUNDER VSB 1
TWO HARBORS    CLOUDY    63  57  82 NE5       29.79F
SILVER BAY     CLOUDY    61  59  94 CALM      29.80R
GRAND MARAIS     N/A     53  53 100 W9        29.80R
G MARAIS ARPRT RAIN      59  55  88 CALM      29.84R
$$
MNZ029>031-032-039>041-046>048-054>057-064-240900-
   West Central Minnesota

CITY           SKY/WX    TMP DP  RH WIND       PRES   REMARKS
FERGUS FALLS   MOCLDY    61  54  77 S7        29.72R
WHEATON        CLEAR     61  55  82 S6        29.76R
MORRIS         CLOUDY    63  57  82 SW8       29.75R
ALEXANDRIA     LGT RAIN  58  57  97 SW5       29.77R FOG
ELBOW LAKE     FAIR      60  54  82 S3        29.76R
WADENA         CLOUDY    61  61 100 CALM      29.75S
GLENWOOD       CLOUDY    57  57 100 SW5       29.77R FOG
APPLETON       PTCLDY    61  55  82 SW3       29.75S
BENSON         MOCLDY    59  55  88 SW5       29.76R
ORTONVILLE     CLEAR     61  55  82 S3        29.75S
MADISON        CLEAR     59  55  88 S5        29.76S
WILLMAR        FAIR      61  59  94 SE3       29.79R
$$
MNZ033>034-036-042>043-049>051-058-059-240900-
   Central Minnesota

CITY           SKY/WX    TMP DP  RH WIND       PRES   REMARKS
ST CLOUD       CLOUDY    62  61  96 S6        29.78R
PAYNESVILLE    CLOUDY    62  62 100 S7        29.78R
AITKIN         FOG       59  55  88 CALM      29.77R VSB 1/4
PINE RIVER     CLOUDY    63  61  94 NE7       29.81R
BRAINERD       CLOUDY    58  58 100 SE3       29.77R FOG
STAPLES        CLOUDY    59  57  94 CALM      29.75S
LONG PRAIRIE   FAIR      57  57 100 SE3       29.76S
LITTLE FALLS   CLOUDY    59  57  94 S6        29.77S
LITCHFIELD     CLOUDY    64  64 100 CALM      29.79R
BUFFALO        MOCLDY    62  60  91 CALM      29.79S
MAPLE LAKE     CLOUDY    64  63  97 CALM      29.80S
HUTCHINSON     PTCLDY    65  64  94 S6        29.79S
$$
MNZ037-044-045-052-053-240900-
   East Central Minnesota

CITY           SKY/WX    TMP DP  RH WIND       PRES   REMARKS
PRINCETON      CLOUDY    64  61  88 SE7       29.78F
MORA           CLOUDY    59  57  94 CALM      29.80S
CAMBRIDGE      CLOUDY    64  55  72 S8        29.77R
RUSH CITY      CLOUDY    61  59  94 SE3       29.79S
MOOSE LAKE     CLOUDY    61  59  94 S3        29.78R
HINCKLEY       CLOUDY    61  61 100 CALM      29.80S
CLOQUET        FOG       57  55  94 CALM      29.79R VSB 3/4
MCGREGOR         N/A     55  55 100 CALM      29.79R VSB 3/4
$$
MNZ071>073-080-081-089-090-097-098-240900-
   Southwest Minnesota

CITY           SKY/WX    TMP DP  RH WIND       PRES   REMARKS
MONTEVIDEO     MOCLDY    61  57  88 W5        29.78R
GRANITE FALLS  PTCLDY    63  61  92 S6        29.78S
CANBY          CLEAR     66  63  88 SW9       29.77S FOG
MARSHALL       CLEAR     63  60  90 SW12      29.77F
REDWOOD FALLS  CLOUDY    61  59  93 S7        29.77S
OLIVIA         CLOUDY    59  57  94 SE7       29.77S
PIPESTONE      FOG       63  61  94 S6        29.80S VSB<1/4
WINDOM         CLOUDY    63  61  94 CALM      29.80S
WORTHINGTON    CLOUDY    63  61  93 SW13      29.80F
JACKSON        CLOUDY    63  59  88 S7        29.81S FOG
TRACY          MOCLDY    63  63 100 SW13      29.79S
SLAYTON        CLOUDY    63  63 100 SW10G16   29.81S FOG
$$
MNZ065>067-074>077-082>085-091>093-240900-
   South Central Minnesota

CITY           SKY/WX    TMP DP  RH WIND       PRES   REMARKS
MANKATO        MOCLDY    64  57  77 S6        29.80F
NEW ULM        CLOUDY    63  63 100 S5        29.79S
ST JAMES       CLOUDY    59  57  94 CALM      29.81R
FAIRMONT       CLOUDY    63  59  88 S10       29.80S
GLENCOE        CLOUDY    66  64  94 S6        29.78S
FARIBAULT      CLOUDY    64  61  88 S5        29.81F
OWATONNA       PTCLDY    64  57  77 S9        29.82S
WASECA         MOCLDY    63  57  82 S9        29.82S
ALBERT LEA     LGT RAIN  64  61  88 S7        29.83S
$$
MNZ078>079-086>088-094>096-240900-
   Southeast Minnesota

CITY           SKY/WX    TMP DP  RH WIND       PRES   REMARKS
ROCHESTER      LGT RAIN  65  62  90 S10       29.84F
RED WING       CLOUDY    64  63  94 SE3       29.81R
STANTON        CLOUDY    65  60  82 CALM      29.79F
DODGE CENTER   CLOUDY    64  59  82 S14       29.82F
WINONA         HVY RAIN  68  63  83 W6        29.84F
AUSTIN         CLOUDY    63  59  88 S2        29.84F
PRESTON        CLOUDY    63  59  88 CALM      29.86F
$$
ABBREVIATIONS USED IN REMARKS
   TC - TEMPERATURES IN CELSIUS
  WCI - WIND CHILL INDEX
   HX - HEAT INDEX
  VSB - VISIBILITY
$$




USA.gov is the U.S. government's official web portal to all federal, state and local government web resources and services.